Tracking 22130 objects as of 21-Jan-2021
HD Live streaming from Space Station
objects crossing your sky now

STARLINK-1544

Track STARLINK-1544 now!
10-day predictions
STARLINK-1544 is classified as:


NORAD ID: 46031
Int'l Code: 2020-055E
Perigee: 552.7 km
Apogee: 556.0 km
Inclination: 53.1 °
Period: 95.6 minutes
Semi major axis: 6925 km
RCS: Unknown
Launch date: August 7, 2020
Source: United States (US)
Launch site: AIR FORCE EASTERN TEST RANGE (AFETR)
aabbcc
Your satellite tracking list
Your tracking list is empty




NASA's NSSDC Master Catalog

Two Line Element Set (TLE):
1 46031U 20055E   21021.81838592  .00000299  00000-0  38974-4 0  9991
2 46031  53.0552 254.2450 0002342  84.5468 275.5788 15.06402234 26090
Source of the keplerian elements: AFSPC